#timestamp,LO_Frequency,Hit,Temp,Hum 
1480179615.6,286047012.2,N,0.0,0.0
1480179635.4,286047012.0,N,0.0,0.0
1480179655.3,286047010.6,N,0.0,0.0
1480179675.1,286047010.2,N,0.0,0.0
1480179695.9,286047008.4,N,0.0,0.0
1480179715.7,286047006.8,N,0.0,0.0
1480179735.5,286047007.6,N,0.0,0.0
1480179755.4,286047005.2,N,0.0,0.0
1480179775.2,286047005.9,N,0.0,0.0
1480179795.1,286047003.5,N,0.0,0.0
1480179796.0,286047003.5,N,0.0,0.0
1480179815.8,286047004.2,N,0.0,0.0
1480179835.6,286047001.3,N,0.0,0.0
1480179855.5,286047001.9,N,0.0,0.0
1480179875.3,286047002.3,N,0.0,0.0
1480179895.1,286047000.2,N,0.0,0.0
1480179915.9,286047001.0,N,0.0,0.0
1480179935.7,286046998.2,N,0.0,0.0
1480179955.6,286046998.3,N,0.0,0.0
1480179975.4,286046998.9,N,0.0,0.0
1480179995.2,286046999.5,N,0.0,0.0
1480180015.1,286046996.9,N,0.0,0.0
1480180016.0,286046996.9,N,0.0,0.0
1480180035.8,286046999.2,N,0.0,0.0
1480180055.6,286046999.2,N,0.0,0.0
1480180075.5,286046997.1,N,0.0,0.0
1480180095.3,286046997.5,N,0.0,0.0
1480180115.2,286046998.0,N,0.0,0.0
1480180135.9,286046995.1,N,0.0,0.0
1480180155.7,286046995.9,N,0.0,0.0
1480180175.6,286046993.9,N,0.0,0.0
1480180195.4,286046993.9,N,0.0,0.0
1480180215.2,286046994.2,N,0.0,0.0
1480180235.1,286046994.2,N,0.0,0.0
1480180236.0,286046994.2,N,0.0,0.0
1480180255.8,286046994.8,N,0.0,0.0
1480180275.7,286046991.9,N,0.0,0.0
1480180295.5,286046993.0,N,0.0,0.0
1480180315.3,286046993.0,N,0.0,0.0
1480180335.2,286046992.7,N,0.0,0.0
1480180355.0,286046990.4,N,0.0,0.0
1480180355.9,286046990.4,N,0.0,0.0
1480180375.8,286046991.0,N,0.0,0.0
1480180395.6,286046991.1,N,0.0,0.0
1480180415.4,286046989.0,N,0.0,0.0
1480180435.3,286046989.5,N,0.0,0.0
1480180455.1,286046986.9,N,0.0,0.0
1480180475.8,286046987.3,N,0.0,0.0
1480180495.7,286046989.9,N,0.0,0.0
1480180515.5,286046989.4,N,0.0,0.0
1480180535.4,286046989.4,N,0.0,0.0
1480180555.2,286046987.0,N,0.0,0.0
1480180575.0,286046987.5,N,0.0,0.0
1480180575.9,286046987.5,N,0.0,0.0
1480180595.8,286046988.4,N,0.0,0.0
1480180615.6,286046986.4,N,0.0,0.0
1480180635.5,286046986.6,N,0.0,0.0
1480180655.3,286046986.6,N,0.0,0.0
1480180675.1,286046985.9,N,0.0,0.0
1480180695.9,286046986.1,N,0.0,0.0
1480180715.7,286046986.5,N,0.0,0.0
1480180735.5,286046986.6,N,0.0,0.0
1480180755.4,286046986.0,N,0.0,0.0
1480180775.2,286046986.2,N,0.0,0.0
1480180795.1,286046983.8,N,0.0,0.0
1480180796.0,286046983.8,N,0.0,0.0
1480180815.8,286046983.8,N,0.0,0.0
1480180835.6,286046984.3,N,0.0,0.0
1480180855.5,286046984.4,N,0.0,0.0
1480180875.3,286046984.6,N,0.0,0.0
1480180895.1,286046984.7,N,0.0,0.0
1480180915.9,286046984.4,N,0.0,0.0
1480180935.7,286046984.6,N,0.0,0.0
1480180955.6,286046984.6,N,0.0,0.0
1480180975.4,286046984.1,N,0.0,0.0
1480180995.2,286046984.0,N,0.0,0.0
1480181015.1,286046984.3,N,0.0,0.0
1480181016.0,286046984.3,N,0.0,0.0
1480181035.8,286046984.4,N,0.0,0.0
1480181055.7,286046983.9,N,0.0,0.0
1480181075.5,286046983.9,N,0.0,0.0
1480181095.3,286046984.5,N,0.0,0.0
1480181115.2,286046984.0,N,0.0,0.0
1480181135.9,286046983.7,N,0.0,0.0
1480181155.7,286046986.3,N,0.0,0.0
1480181175.6,286046986.2,N,0.0,0.0
1480181195.4,286046986.4,N,0.0,0.0
1480181215.3,286046986.6,N,0.0,0.0
1480181235.1,286046986.1,N,0.0,0.0
1480181236.0,286046986.1,N,0.0,0.0
1480181255.8,286046988.4,N,0.0,0.0
1480181275.7,286046985.5,N,0.0,0.0
1480181295.5,286046985.5,N,0.0,0.0
1480181315.4,286046985.3,N,0.0,0.0
1480181335.2,286046987.9,N,0.0,0.0
1480181355.0,286046987.2,N,0.0,0.0
1480181355.9,286046987.2,N,0.0,0.0
1480181375.8,286046987.0,N,0.0,0.0
1480181395.6,286046986.9,N,0.0,0.0
1480181415.4,286046989.6,N,0.0,0.0
1480181435.3,286046987.4,N,0.0,0.0
1480181455.1,286046990.0,N,0.0,0.0
1480181475.9,286046989.9,N,0.0,0.0
1480181495.7,286046989.6,N,0.0,0.0
1480181515.5,286046989.8,N,0.0,0.0
1480181535.4,286046989.4,N,0.0,0.0
1480181555.2,286046989.1,N,0.0,0.0
1480181575.0,286046989.0,N,0.0,0.0
1480181576.0,286046989.0,N,0.0,0.0
1480181595.8,286046988.6,N,0.0,0.0
1480181615.6,286046988.6,N,0.0,0.0
1480181635.5,286046989.1,N,0.0,0.0
1480181655.3,286046988.8,N,0.0,0.0
1480181675.1,286046988.8,N,0.0,0.0
1480181695.9,286046989.0,N,0.0,0.0
1480181715.7,286046988.6,N,0.0,0.0
1480181735.6,286046991.4,N,0.0,0.0
1480181755.4,286046990.8,N,0.0,0.0
1480181775.2,286046992.7,N,0.0,0.0
1480181795.1,286046992.8,N,0.0,0.0
1480181796.0,286046992.8,N,0.0,0.0
1480181815.8,286046992.9,N,0.0,0.0
1480181835.6,286046991.9,N,0.0,0.0
1480181855.5,286046991.9,N,0.0,0.0
1480181875.3,286046991.7,N,0.0,0.0
1480181895.2,286046996.0,N,0.0,0.0
1480181915.9,286046993.4,N,0.0,0.0
1480181935.7,286046995.6,N,0.0,0.0
1480181955.6,286046998.0,N,0.0,0.0
1480181975.4,286046995.7,N,0.0,0.0
1480181995.3,286046993.4,N,0.0,0.0
1480182015.1,286046995.8,N,0.0,0.0
1480182016.0,286046995.8,N,0.0,0.0
1480182035.8,286046996.2,N,0.0,0.0
1480182055.7,286046993.4,N,0.0,0.0
1480182075.5,286046995.4,N,0.0,0.0
1480182095.3,286046995.2,N,0.0,0.0
1480182115.2,286046997.6,N,0.0,0.0
1480182135.0,286046997.3,N,0.0,0.0
1480182135.9,286046997.3,N,0.0,0.0
1480182155.8,286046995.3,N,0.0,0.0
1480182175.6,286046999.6,N,0.0,0.0
1480182195.4,286046999.2,N,0.0,0.0
1480182215.3,286046999.5,N,0.0,0.0
1480182235.1,286046999.5,N,0.0,0.0
1480182255.9,286046999.0,N,0.0,0.0
1480182275.7,286047001.0,N,0.0,0.0
1480182295.5,286046999.8,N,0.0,0.0
1480182315.4,286047001.7,N,0.0,0.0
1480182335.2,286047001.3,N,0.0,0.0
1480182355.0,286047004.4,N,0.0,0.0
1480182355.9,286047004.4,N,0.0,0.0
1480182375.8,286047004.3,N,0.0,0.0
1480182395.6,286047005.9,N,0.0,0.0
1480182415.5,286047005.1,N,0.0,0.0
1480182435.3,286047005.6,N,0.0,0.0
1480182455.1,286047005.1,N,0.0,0.0
1480182475.9,286047005.1,N,0.0,0.0
1480182495.7,286047005.2,N,0.0,0.0
1480182515.5,286047004.5,N,0.0,0.0
1480182535.4,286047007.6,N,0.0,0.0
1480182555.2,286047007.2,N,0.0,0.0
1480182575.1,286047006.3,N,0.0,0.0
1480182576.0,286047006.3,N,0.0,0.0
1480182595.8,286047006.7,N,0.0,0.0
1480182615.6,286047006.1,N,0.0,0.0
1480182635.5,286047008.4,N,0.0,0.0
1480182655.3,286047006.6,N,0.0,0.0
1480182675.2,286047006.2,N,0.0,0.0
1480182695.9,286047008.3,N,0.0,0.0
1480182715.7,286047010.3,N,0.0,0.0
1480182735.6,286047007.7,N,0.0,0.0
1480182755.4,286047008.5,N,0.0,0.0
1480182775.2,286047006.6,N,0.0,0.0
1480182795.1,286047006.6,N,0.0,0.0
1480182796.0,286047006.6,N,0.0,0.0
1480182815.8,286047006.3,N,0.0,0.0
1480182835.7,286047007.3,N,0.0,0.0
1480182855.5,286047007.6,N,0.0,0.0
1480182875.3,286047007.0,N,0.0,0.0
1480182895.2,286047006.3,N,0.0,0.0
1480182915.0,286047007.6,N,0.0,0.0
1480182915.9,286047007.6,N,0.0,0.0
1480182935.8,286047005.2,N,0.0,0.0
1480182955.6,286047007.6,N,0.0,0.0
1480182975.4,286047007.3,N,0.0,0.0
1480182995.3,286047006.5,N,0.0,0.0
1480183015.1,286047008.7,N,0.0,0.0
1480183035.8,286047006.1,N,0.0,0.0
1480183055.7,286047008.4,N,0.0,0.0
1480183075.5,286047010.3,N,0.0,0.0
1480183095.4,286047010.3,N,0.0,0.0
1480183115.2,286047009.6,N,0.0,0.0
1480183135.0,286047011.1,N,0.0,0.0
1480183135.9,286047011.1,N,0.0,0.0
1480183155.8,286047011.8,N,0.0,0.0
1480183175.6,286047009.7,N,0.0,0.0
1480183195.4,286047009.9,N,0.0,0.0
